Regional Weather Roundup
Issued by NWS Albany, NY

Home | Current Version | Previous Version | Text Only | Print | Product List | Glossary On
Versions: 1 2 3 4 5 6 7 8 9 10 11 12 13 14 15 16 17 18 19 20 21 22 23 24 25 26 27 28 29 30 31 32 33 34 35 36 37 38 39 40 41 42 43 44 45 46 47 48 49 50
000
ASUS41 KALY 171710
RWRALY

NEW YORK STATE HOURLY WEATHER ROUNDUP
NATIONAL WEATHER SERVICE ALBANY NY
100 PM EDT WED SEP 17 2014

NOTE: "FAIR" INDICATES FEW OR NO CLOUDS BELOW 12,000 FEET WITH NO
SIGNIFICANT WEATHER AND/OR NO OBSTRUCTIONS TO VISIBILITY.

NYZ032-033-038>043-046>054-057>066-NYZ062>081-171800-
EAST


CITY           SKY/WX    TMP DP  RH WIND       PRES   REMARKS
ALBANY         PTSUNNY   63  45  51 NW5       30.02F
GLENS FALLS    MOSUNNY   64  43  46 MISG      30.00F
POUGHKEEPSIE   MOSUNNY   66  43  43 S3        30.01F
NEWBURGH       MOSUNNY   64  46  52 NW7       30.04F
MONTGOMERY     MOSUNNY   67  44  43 VRB5      30.02F
WHITE PLAINS   MOSUNNY   67  41  38 W7        30.02F
ISLIP          MOSUNNY   69  42  37 N8        30.01F
NEW YORK CITY  MOSUNNY   69  40  34 NW5       30.02F
CENTRAL PARK   SUNNY     70  40  33 W7        30.05F
$$

NYZ005>009-017-018-044>046-055-056-171800-
CENTRAL


CITY           SKY/WX    TMP DP  RH WIND       PRES   REMARKS
FULTON         MOSUNNY   63  46  54 VRB6      30.00F
SYRACUSE       PTSUNNY   67  45  45 SW9       30.01F
ROME           PTSUNNY   63  46  54 W6        30.02F
ELMIRA         MOSUNNY   66  43  43 W10       30.01F
BINGHAMTON     PTSUNNY   61  44  53 W7        30.03F
MONTICELLO     MOSUNNY   59  46  63 W6        30.05F
$$

NYZ026>034-041>043-171800-
NORTH


CITY           SKY/WX    TMP DP  RH WIND       PRES   REMARKS
WATERTOWN      CLOUDY    60  49  66 S6        29.99F
FORT DRUM      NOT AVBL
MASSENA        PTSUNNY   65  49  56 S14G21    29.97F
SARANAC LAKE   MOSUNNY   58  40  51 SW12      29.98F
PLATTSBURGH    SUNNY     65  40  39 VRB3      29.97F
$$

NYZ001>004-010>016-019>021-171800-
WEST


CITY           SKY/WX    TMP DP  RH WIND       PRES   REMARKS
NIAGARA FALLS  MOSUNNY   67  44  43 SW12      29.99F
BUFFALO        MOSUNNY   65  44  46 SW13G21   30.00F
DUNKIRK        PTSUNNY   64  47  53 W15       30.01F
JAMESTOWN      PTSUNNY   52  45  76 SW3       30.03F
WELLSVILLE     PTSUNNY   60  41  49 NW5       30.04F
ROCHESTER      MOSUNNY   65  46  50 SW6       30.00F
PENN YAN       PTSUNNY   63  44  50 W5        30.02F
$$

             KEY
       WCI = WIND CHILL INDEX
       VSB = VISIBILITY
       HX  = HEAT INDEX
$$


USA.gov is the U.S. government's official web portal to all federal, state and local government web resources and services.